Location: Middlebury
(44.0153°N, 73.1678°W)
Time: 14:20:51
(UTC-04:00)

QB50P2 - Pass Details

Date: 25 June 2024
Orbit: 562 x 579 km, 98.0° (Epoch: 14 July)

Event Time Altitude Azimuth Distance (km) Brightness Sun altitude
Rises 02:52:12 0° 25° (NNE) 2,764 ? -17.5°
Reaches altitude 10° 02:54:41 10° 40° (NE) 1,861 ? -17.3°
Maximum altitude 02:57:59 24° 95° (E) 1,182 ? -17.0°
Enters shadow 03:01:00 11° 148° (SSE) 1,763 ? -16.7°
